Torna al catalogo

STARLINK-31264

AttivoComunicazioniVLEO
NORAD 58845·PAYLOAD·🇺🇸 United States

Lanciato Jan 24, 2024 da Vandenberg Space Force Base

Loading…

Prossimi Passaggi (prossime 24 ore)

TLE

AggiornatoSource: CelesTrak SupGP

Epoca: Sep 15, 2026, 02:27 UTC

1 58845C 24017V   26258.10256944  .00048559  00000+0  14346-2 0  2586
2 58845  53.1566 132.6371 0001133  81.8764  56.7820 15.34369350    11

Traccia STARLINK-31264 in tempo reale con AllMySat

Download on the App Store